Regional Weather Roundup
Issued by NWS

Home | Current Version | Previous Version | Graphics & Text | Print | Product List | Glossary Off
Versions: 1 2 3 4 5 6 7 8 9 10 11 12 13 14 15 16 17 18 19 20 21 22 23 24 25 26 27 28 29 30 31 32 33 34 35 36 37 38 39 40 41 42 43 44 45 46 47 48 49 50

000
ASUS43 KMPX 190001
RWRMN
WEATHER ROUNDUP FOR MINNESOTA
NATIONAL WEATHER SERVICE TWIN CITIES/CHANHASSEN MN
700 PM CDT FRI AUG 18 2017


NOTE: "FAIR" INDICATES FEW OR NO CLOUDS BELOW 12,000 FEET WITH NO
SIGNIFICANT WEATHER AND/OR OBSTRUCTIONS TO VISIBILITY. N/A MEANS
CURRENT SKY AND/OR WEATHER CONDITIONS ARE NOT AVAILABLE.

MNZ060>063-068>070-190100-
   Twin Cities Metro

CITY           SKY/WX    TMP DP  RH WIND       PRES   REMARKS
TWIN CITIES    CLOUDY    72  60  66 VRB3      29.89S
6HR MIN TEMP:  65; 6HR MAX TEMP:  75; 6HR PCP:  0.11;

ST PAUL        PTSUNNY   70  63  78 SW7       29.89R
CRYSTAL        CLOUDY    70  59  68 SW3       29.88R
BLAINE         CLOUDY    73  63  68 W7        29.89R
LAKEVILLE      MOSUNNY   68  63  83 CALM      29.90S
EDEN PRAIRIE   CLOUDY    70  60  70 CALM      29.88S
6HR MIN TEMP:  66; 6HR MAX TEMP:  75; 6HR PCP: TRACE;

SOUTH ST PAUL  CLOUDY    70  62  74 W5        29.89S
LAKE ELMO      PTSUNNY   70  64  83 SW6       29.90R
$$
MNZ001>005-007-008-013>017-022>024-027-028-190100-
   Northwest Minnesota

CITY           SKY/WX    TMP DP  RH WIND       PRES   REMARKS
BEMIDJI        MOSUNNY   67  57  69 SW7       29.87F
HALLOCK        SUNNY     81  46  30 W10       29.81S
ROSEAU         SUNNY     79  57  47 W5        29.82R
WARROAD        SUNNY     77  63  61 W3        29.81S
CROOKSTON      SUNNY     79  54  41 N6        29.84S
FOSSTON        SUNNY     70  57  64 S8        29.88S
DETROIT LAKES  CLOUDY    64  57  77 CALM      29.91S
MOORHEAD       PTSUNNY   72  61  68 SE6       29.89R
PARK RAPIDS    CLOUDY    67  61  81 NW6       29.89R
MAHNOMEN       FAIR      65  61  85 S5        29.88R
$$
MNZ006-009>011-018-025>026-190100-
   North Central Minnesota

CITY           SKY/WX    TMP DP  RH WIND       PRES   REMARKS
BAUDETTE       SUNNY     75  58  55 W6        29.81R
FLAG ISLAND    SUNNY     77  55  47 NW7       29.79R HAZE
INTL FALLS     MOSUNNY   72  59  63 SW5       29.80S
6HR MIN TEMP:  72; 6HR MAX TEMP:  80;

WASKISH        PTSUNNY   73  63  68 CALM      29.83S
BIG FORK       MOSUNNY   70  61  73 SW3       29.84S
LONGVILLE      CLOUDY    66  61  82 SW3       29.87R
GRAND RAPIDS   MOSUNNY   68  59  73 W7        29.88R
CRANE LAKE     CLOUDY    72  59  64 SW3       29.83R
ORR            CLOUDY    63  59  88 SE3       29.83S
COOK           CLOUDY    64  61  88 W7G18     29.86R
WALKER         LGT RAIN  64  59  86 W6        29.87S
$$
MNZ012-019>021-037-190100-
   Northeast Minnesota

CITY           SKY/WX    TMP DP  RH WIND       PRES   REMARKS
DULUTH         MOSUNNY   68  63  84 SW6       29.85S
6HR MIN TEMP:  68; 6HR MAX TEMP:  71;

ELY            MOSUNNY   70  55  60 CALM      29.83R
HIBBING        PTSUNNY   69  60  73 W3        29.84S
EVELETH        CLOUDY    63  56  77 N5G31     29.87R
DULUTH HARBOR  MOSUNNY   72  66  83 S9        29.84S
TWO HARBORS    MOSUNNY   72  64  78 SW3       29.82S
SILVER BAY     MOSUNNY   70  64  83 CALM      29.81F
GRAND MARAIS     N/A     64  62  93 SW6       29.80S
G MARAIS ARPRT MOSUNNY   64  55  72 CALM      29.85S
$$
MNZ029>031-032-039>041-046>048-054>057-064-190100-
   West Central Minnesota

CITY           SKY/WX    TMP DP  RH WIND       PRES   REMARKS
FERGUS FALLS   CLOUDY    72  61  68 CALM      29.89R
WHEATON        SUNNY     73  57  56 CALM      29.91S
MORRIS         PTSUNNY   73  63  68 CALM      29.88S
ALEXANDRIA     CLOUDY    69  60  73 CALM      29.91F
ELBOW LAKE     FAIR      70  61  73 CALM      29.90S HAZE
WADENA         MOSUNNY   66  59  77 W5        29.89R
GLENWOOD       CLOUDY    70  63  78 E3        29.90S
APPLETON       CLOUDY    72  63  73 N7        29.88R
BENSON         CLOUDY    72  63  73 E5        29.90R
ORTONVILLE     CLOUDY    70  63  78 MISG      29.90R
MADISON        CLOUDY    66  66 100 NW8       29.88S
WILLMAR        FAIR      70  64  83 E3        29.90S
$$
MNZ033>034-036-042>043-049>051-058-059-190100-
   Central Minnesota

CITY           SKY/WX    TMP DP  RH WIND       PRES   REMARKS
ST CLOUD       PTSUNNY   69  61  75 W5        29.88F
6HR MIN TEMP:  69; 6HR MAX TEMP:  76;

SAUK CENTRE    FAIR      67  63  85 CALM      29.90F
PAYNESVILLE    CLOUDY    70  62  77 NE3       29.90F
AITKIN         CLOUDY    66  59  77 W3        29.85R
PINE RIVER     PTSUNNY   64  59  82 CALM      29.91S
BRAINERD       MOSUNNY   68  61  78 W8        29.88R
STAPLES        MOSUNNY   70  61  73 CALM      29.89R
LONG PRAIRIE   FAIR      66  61  82 SE6       29.89F
LITTLE FALLS   CLOUDY    66  57  72 CALM      29.88F
LITCHFIELD     PTSUNNY   72  64  78 CALM      29.90S
BUFFALO        PTSUNNY   69  60  72 SW3       29.90S
MAPLE LAKE     CLOUDY    70  64  80 CALM      29.90S
HUTCHINSON     MOSUNNY   71  64  80 CALM      29.90F
$$
MNZ037-044-045-052-053-190100-
   East Central Minnesota

CITY           SKY/WX    TMP DP  RH WIND       PRES   REMARKS
PRINCETON      CLOUDY    72  64  78 CALM      29.88S
MORA           CLOUDY    70  61  73 CALM      29.89R
CAMBRIDGE      PTSUNNY   73  61  64 S6        29.88R
RUSH CITY      CLOUDY    70  64  80 CALM      29.88R HAZE
MOOSE LAKE     CLOUDY    64  57  77 W3        29.85S
HINCKLEY       MOCLDY    70  66  88 SW3       29.86S
CLOQUET        MOSUNNY   68  57  68 SW6       29.86R
MCGREGOR       CLOUDY    68  55  64 CALM      29.87S
$$
MNZ071>073-080-081-089-090-097-098-190100-
   Southwest Minnesota

CITY           SKY/WX    TMP DP  RH WIND       PRES   REMARKS
MONTEVIDEO     PTSUNNY   63  61  94 N6        29.88S
GRANITE FALLS  RAIN      66  62  86 NW6       29.91R
CANBY          LGT RAIN  63  63  97 CALM      29.90R
MARSHALL       TSTM      61  60  97 S8        29.89R
REDWOOD FALLS  LGT RAIN  66  59  78 SE17      29.86F
OLIVIA         CLOUDY    70  64  83 SE5       29.88S
PIPESTONE      MOSUNNY   77  61  57 N16G26    29.88R
WINDOM         CLOUDY    72  63  73 SE6         N/A  THUNDER
WORTHINGTON    PTSUNNY   73  64  73 S8        29.88F
JACKSON        CLOUDY    72  63  73 CALM      29.90S THUNDER
TRACY          TSTM      62  58  87 W7        29.89R
SLAYTON        CLOUDY    72  60  67 S6        29.89R
$$
MNZ065>067-074>077-082>085-091>093-190100-
   South Central Minnesota

CITY           SKY/WX    TMP DP  RH WIND       PRES   REMARKS
MANKATO        MOSUNNY   69  63  81 SE3       29.90F
NEW ULM        CLOUDY    68  61  77 SE5       29.89S THUNDER
ST JAMES       CLOUDY    70  63  78 E6        29.90F THUNDER
FAIRMONT       MOSUNNY   71  63  75 SE5       29.91S
GLENCOE        CLOUDY    72  65  81 CALM      29.89F
FARIBAULT      MOSUNNY   70  63  78 CALM      29.91F
OWATONNA       MOSUNNY   68  63  83 S3        29.91F
WASECA         MOSUNNY   68  61  77 CALM      29.92S
ALBERT LEA     MOSUNNY   72  63  73 S3        29.92R
$$
MNZ078>079-086>088-094>096-190100-
   Southeast Minnesota

CITY           SKY/WX    TMP DP  RH WIND       PRES   REMARKS
ROCHESTER      SUNNY     69  61  75 W5        29.93R
6HR MIN TEMP:  63; 6HR MAX TEMP:  71; 6HR PCP:  0.04;

RED WING       CLOUDY    72  63  73 CALM      29.88S
STANTON        MOSUNNY   72  64  75 CALM      29.90R
DODGE CENTER   SUNNY     70  61  73 CALM      29.93R
WINONA         SUNNY     70  61  73 W3        29.90R
AUSTIN         SUNNY     70  57  64 CALM      29.92R
PRESTON        SUNNY     70  56  60 CALM      29.92S
$$
ABBREVIATIONS USED IN REMARKS
   TC - TEMPERATURES IN CELSIUS
  WCI - WIND CHILL INDEX
   HX - HEAT INDEX
  VSB - VISIBILITY
$$




USA.gov is the U.S. government's official web portal to all federal, state and local government web resources and services.